Time,TemperatureF,DewpointF,PressureIn,WindDirection,WindDirectionDegrees,WindSpeedMPH,WindSpeedGustMPH,Humidity,HourlyPrecipIn,Conditions,Clouds,dailyrainin,SoftwareType,DateUTC
2013-01-10 00:00:00,58.3,51.1,30.38,West,269,2.0,8.0,77,0.00,,,0.00,meteohub,2013-01-10 05:00:00,
2013-01-10 00:01:00,58.3,51.1,30.38,WNW,290,1.0,8.0,77,0.00,,,0.00,meteohub,2013-01-10 05:01:00,
2013-01-10 00:03:00,58.3,51.1,30.38,SW,236,2.0,8.0,77,0.00,,,0.00,meteohub,2013-01-10 05:03:00,
2013-01-10 00:08:00,58.1,50.9,30.38,NW,326,4.0,8.0,77,0.00,,,0.00,meteohub,2013-01-10 05:08:00,
2013-01-10 00:13:00,58.1,50.9,30.38,SW,225,4.0,7.0,77,0.00,,,0.00,meteohub,2013-01-10 05:13:00,
2013-01-10 00:18:00,58.1,50.9,30.38,WSW,249,2.0,5.0,77,0.00,,,0.00,meteohub,2013-01-10 05:18:00,
2013-01-10 00:23:00,57.9,50.7,30.38,WNW,300,5.0,6.0,77,0.00,,,0.00,meteohub,2013-01-10 05:23:00,
2013-01-10 00:28:00,57.9,51.1,30.39,NW,304,1.0,6.0,78,0.00,,,0.00,meteohub,2013-01-10 05:28:00,
2013-01-10 00:33:00,57.7,50.9,30.39,NW,316,3.0,6.0,78,0.00,,,0.00,meteohub,2013-01-10 05:33:00,
2013-01-10 00:38:00,57.7,50.9,30.39,West,269,2.0,5.0,78,0.00,,,0.00,meteohub,2013-01-10 05:38:00,
2013-01-10 00:43:00,57.6,50.7,30.39,WNW,301,5.0,7.0,78,0.00,,,0.00,meteohub,2013-01-10 05:43:00,
2013-01-10 00:48:00,57.6,50.7,30.39,West,269,2.0,7.0,78,0.00,,,0.00,meteohub,2013-01-10 05:48:00,
2013-01-10 00:53:00,57.4,50.9,30.39,NW,311,1.0,7.0,79,0.00,,,0.00,meteohub,2013-01-10 05:53:00,
2013-01-10 00:58:00,57.2,50.7,30.39,North,352,1.0,6.0,79,0.00,,,0.00,meteohub,2013-01-10 05:58:00,
2013-01-10 01:03:00,57.0,50.5,30.39,WNW,290,1.0,5.0,79,0.00,,,0.00,meteohub,2013-01-10 06:03:00,
2013-01-10 01:08:00,57.0,50.5,30.39,WNW,297,2.0,5.0,79,0.00,,,0.00,meteohub,2013-01-10 06:08:00,
2013-01-10 01:13:00,56.8,50.7,30.39,WNW,301,2.0,7.0,80,0.00,,,0.00,meteohub,2013-01-10 06:13:00,
2013-01-10 01:18:00,56.7,50.5,30.39,WSW,250,2.0,7.0,80,0.00,,,0.00,meteohub,2013-01-10 06:18:00,
2013-01-10 01:23:00,56.7,50.5,30.39,West,264,0.0,7.0,80,0.00,,,0.00,meteohub,2013-01-10 06:23:00,
2013-01-10 01:28:00,56.5,50.7,30.39,West,268,2.0,5.0,81,0.00,,,0.00,meteohub,2013-01-10 06:28:00,
2013-01-10 01:33:00,56.3,50.5,30.40,WNW,287,0.0,5.0,81,0.00,,,0.00,meteohub,2013-01-10 06:33:00,
2013-01-10 01:39:00,56.1,50.4,30.40,West,277,1.0,4.0,81,0.00,,,0.00,meteohub,2013-01-10 06:39:00,
2013-01-10 01:44:00,55.9,50.5,30.40,WNW,284,0.0,4.0,82,0.00,,,0.00,meteohub,2013-01-10 06:44:00,
2013-01-10 01:49:00,55.8,50.4,30.40,North,8,2.0,4.0,82,0.00,,,0.00,meteohub,2013-01-10 06:49:00,
2013-01-10 01:54:00,55.4,50.0,30.40,NNW,338,1.0,5.0,82,0.00,,,0.00,meteohub,2013-01-10 06:54:00,
2013-01-10 01:59:00,55.2,50.2,30.40,NNW,347,0.0,5.0,83,0.00,,,0.00,meteohub,2013-01-10 06:59:00,
2013-01-10 02:04:00,55.0,50.0,30.40,NNW,342,1.0,3.0,83,0.00,,,0.00,meteohub,2013-01-10 07:04:00,
2013-01-10 02:09:00,54.9,50.2,30.40,North,8,2.0,3.0,84,0.00,,,0.00,meteohub,2013-01-10 07:09:00,
2013-01-10 02:14:00,54.7,50.0,30.40,North,11,2.0,3.0,84,0.00,,,0.00,meteohub,2013-01-10 07:14:00,
2013-01-10 02:19:00,54.7,50.2,30.40,North,1,4.0,4.0,85,0.00,,,0.00,meteohub,2013-01-10 07:19:00,
2013-01-10 02:24:00,54.7,50.2,30.40,North,11,3.0,6.0,85,0.00,,,0.00,meteohub,2013-01-10 07:24:00,
2013-01-10 02:29:00,54.5,50.0,30.41,North,349,2.0,6.0,85,0.00,,,0.00,meteohub,2013-01-10 07:29:00,
2013-01-10 02:34:00,54.3,49.8,30.41,NW,324,3.0,6.0,85,0.00,,,0.00,meteohub,2013-01-10 07:34:00,
2013-01-10 02:39:00,54.3,49.8,30.41,North,11,0.0,5.0,85,0.00,,,0.00,meteohub,2013-01-10 07:39:00,
2013-01-10 02:44:00,54.3,50.2,30.41,WNW,290,0.0,4.0,86,0.00,,,0.00,meteohub,2013-01-10 07:44:00,
2013-01-10 02:49:00,54.1,50.0,30.41,West,267,0.0,4.0,86,0.00,,,0.00,meteohub,2013-01-10 07:49:00,
2013-01-10 02:54:00,54.0,49.8,30.41,NNW,338,0.0,4.0,86,0.00,,,0.00,meteohub,2013-01-10 07:54:00,
2013-01-10 02:59:00,53.4,49.3,30.42,ENE,68,2.0,2.0,86,0.00,,,0.00,meteohub,2013-01-10 07:59:00,
2013-01-10 03:04:00,53.2,49.8,30.42,NNE,19,4.0,8.0,88,0.00,,,0.00,meteohub,2013-01-10 08:04:00,
2013-01-10 03:09:00,53.4,49.6,30.43,North,8,4.0,8.0,87,0.00,,,0.00,meteohub,2013-01-10 08:09:00,
2013-01-10 03:14:00,53.4,50.0,30.43,NNE,23,6.0,12.0,88,0.00,,,0.00,meteohub,2013-01-10 08:14:00,
2013-01-10 03:19:00,53.4,50.0,30.43,NNE,27,3.0,12.0,88,0.00,,,0.00,meteohub,2013-01-10 08:19:00,
2013-01-10 03:24:00,53.4,50.0,30.43,NNE,26,4.0,12.0,88,0.00,,,0.00,meteohub,2013-01-10 08:24:00,
2013-01-10 03:29:00,53.2,49.8,30.43,NNE,18,4.0,9.0,88,0.00,,,0.00,meteohub,2013-01-10 08:29:00,
2013-01-10 03:34:00,53.2,49.8,30.43,NNE,30,3.0,9.0,88,0.00,,,0.00,meteohub,2013-01-10 08:34:00,
2013-01-10 03:39:00,53.1,49.8,30.44,NNE,27,2.0,9.0,89,0.00,,,0.00,meteohub,2013-01-10 08:39:00,
2013-01-10 03:44:00,53.1,49.8,30.44,NNE,13,0.0,6.0,89,0.00,,,0.00,meteohub,2013-01-10 08:44:00,
2013-01-10 03:49:00,52.9,49.6,30.44,NNE,20,1.0,6.0,89,0.00,,,0.00,meteohub,2013-01-10 08:49:00,
2013-01-10 03:55:00,52.9,50.0,30.44,NNE,19,0.0,4.0,90,0.00,,,0.00,meteohub,2013-01-10 08:55:00,
2013-01-10 04:00:00,52.7,49.8,30.44,NNE,20,0.0,2.0,90,0.00,,,0.00,meteohub,2013-01-10 09:00:00,
2013-01-10 04:05:00,52.5,49.6,30.44,NNE,23,0.0,2.0,90,0.00,,,0.00,meteohub,2013-01-10 09:05:00,
2013-01-10 04:10:00,52.2,49.3,30.44,NNE,23,0.0,2.0,90,0.00,,,0.00,meteohub,2013-01-10 09:10:00,
2013-01-10 04:15:00,52.0,49.5,30.44,NNE,23,0.0,1.0,91,0.00,,,0.00,meteohub,2013-01-10 09:15:00,
2013-01-10 04:20:00,51.6,49.1,30.44,NNE,23,0.0,0.0,91,0.00,,,0.00,meteohub,2013-01-10 09:20:00,
2013-01-10 04:25:00,51.3,48.7,30.45,NE,56,0.0,1.0,91,0.00,,,0.00,meteohub,2013-01-10 09:25:00,
2013-01-10 04:30:00,51.3,49.1,30.45,NE,46,3.0,3.0,92,0.00,,,0.00,meteohub,2013-01-10 09:30:00,
2013-01-10 04:35:00,51.3,49.1,30.45,NE,39,2.0,4.0,92,0.00,,,0.00,meteohub,2013-01-10 09:35:00,
2013-01-10 04:40:00,51.3,49.1,30.46,NNE,26,3.0,4.0,92,0.00,,,0.00,meteohub,2013-01-10 09:40:00,
2013-01-10 04:45:00,51.3,48.7,30.46,NE,53,4.0,4.0,91,0.00,,,0.00,meteohub,2013-01-10 09:45:00,
2013-01-10 04:50:00,51.3,48.2,30.46,NE,53,4.0,7.0,89,0.00,,,0.00,meteohub,2013-01-10 09:50:00,
2013-01-10 04:56:00,51.3,47.8,30.45,NNE,26,4.0,7.0,88,0.00,,,0.00,meteohub,2013-01-10 09:56:00,
2013-01-10 05:01:00,51.4,47.5,30.46,NE,37,4.0,7.0,86,0.00,,,0.00,meteohub,2013-01-10 10:01:00,
2013-01-10 05:06:00,51.4,46.4,30.46,NNE,26,5.0,6.0,83,0.00,,,0.00,meteohub,2013-01-10 10:06:00,
2013-01-10 05:11:00,51.6,45.3,30.46,NNE,30,4.0,8.0,79,0.00,,,0.00,meteohub,2013-01-10 10:11:00,
2013-01-10 05:16:00,51.6,45.0,30.46,NNE,33,5.0,8.0,78,0.00,,,0.00,meteohub,2013-01-10 10:16:00,
2013-01-10 05:21:00,51.6,44.2,30.46,NNE,18,6.0,10.0,76,0.00,,,0.00,meteohub,2013-01-10 10:21:00,
2013-01-10 05:26:00,51.4,44.1,30.47,NE,40,3.0,10.0,76,0.00,,,0.00,meteohub,2013-01-10 10:26:00,
2013-01-10 05:31:00,51.4,43.5,30.46,NE,39,4.0,8.0,74,0.00,,,0.00,meteohub,2013-01-10 10:31:00,
2013-01-10 05:36:00,51.6,43.3,30.47,North,9,4.0,8.0,73,0.00,,,0.00,meteohub,2013-01-10 10:36:00,
2013-01-10 05:41:00,51.4,42.8,30.47,NNE,16,3.0,8.0,72,0.00,,,0.00,meteohub,2013-01-10 10:41:00,
2013-01-10 05:46:00,51.4,42.4,30.47,NE,43,4.0,8.0,71,0.00,,,0.00,meteohub,2013-01-10 10:46:00,
2013-01-10 05:51:00,51.3,41.9,30.48,NE,35,4.0,8.0,70,0.00,,,0.00,meteohub,2013-01-10 10:51:00,
2013-01-10 05:57:00,51.3,41.4,30.48,NNE,30,6.0,7.0,69,0.00,,,0.00,meteohub,2013-01-10 10:57:00,
2013-01-10 06:02:00,51.3,40.6,30.48,North,4,4.0,8.0,67,0.00,,,0.00,meteohub,2013-01-10 11:02:00,
2013-01-10 06:07:00,51.3,40.3,30.48,NE,56,4.0,8.0,66,0.00,,,0.00,meteohub,2013-01-10 11:07:00,
2013-01-10 06:12:00,51.1,40.1,30.48,NE,53,3.0,8.0,66,0.00,,,0.00,meteohub,2013-01-10 11:12:00,
2013-01-10 06:17:00,51.1,39.7,30.48,NNE,25,4.0,8.0,65,0.00,,,0.00,meteohub,2013-01-10 11:17:00,
2013-01-10 06:22:00,50.9,39.6,30.48,NE,39,4.0,8.0,65,0.00,,,0.00,meteohub,2013-01-10 11:22:00,
2013-01-10 06:27:00,50.7,39.0,30.48,ENE,57,4.0,8.0,64,0.00,,,0.00,meteohub,2013-01-10 11:27:00,
2013-01-10 06:32:00,50.7,39.0,30.49,NNE,27,5.0,7.0,64,0.00,,,0.00,meteohub,2013-01-10 11:32:00,
2013-01-10 06:37:00,50.5,38.8,30.49,NE,34,5.0,7.0,64,0.00,,,0.00,meteohub,2013-01-10 11:37:00,
2013-01-10 06:42:00,50.5,38.8,30.49,NE,36,2.0,7.0,64,0.00,,,0.00,meteohub,2013-01-10 11:42:00,
2013-01-10 06:47:00,50.4,38.7,30.50,ENE,69,0.0,6.0,64,0.00,,,0.00,meteohub,2013-01-10 11:47:00,
2013-01-10 06:52:00,50.4,38.3,30.50,NE,41,4.0,7.0,63,0.00,,,0.00,meteohub,2013-01-10 11:52:00,
2013-01-10 06:57:00,50.4,37.8,30.50,NE,40,5.0,8.0,62,0.00,,,0.00,meteohub,2013-01-10 11:57:00,
2013-01-10 07:02:00,50.4,37.8,30.50,NE,40,4.0,8.0,62,0.00,,,0.00,meteohub,2013-01-10 12:02:00,
2013-01-10 07:07:00,50.2,37.6,30.51,NNE,29,4.0,8.0,62,0.00,,,0.00,meteohub,2013-01-10 12:07:00,
2013-01-10 07:12:00,49.8,37.4,30.51,NNE,27,6.0,8.0,62,0.00,,,0.00,meteohub,2013-01-10 12:12:00,
2013-01-10 07:17:00,50.0,37.0,30.52,ESE,113,3.0,12.0,61,0.00,,,0.00,meteohub,2013-01-10 12:17:00,
2013-01-10 07:22:00,49.6,36.7,30.52,NNE,29,3.0,12.0,61,0.00,,,0.00,meteohub,2013-01-10 12:22:00,
2013-01-10 07:27:00,49.6,36.7,30.52,NNE,33,2.0,12.0,61,0.00,,,0.00,meteohub,2013-01-10 12:27:00,
2013-01-10 07:32:00,49.6,36.7,30.53,NE,49,6.0,9.0,61,0.00,,,0.00,meteohub,2013-01-10 12:32:00,
2013-01-10 07:37:00,49.6,36.3,30.53,NE,40,6.0,11.0,60,0.00,,,0.00,meteohub,2013-01-10 12:37:00,
2013-01-10 07:42:00,49.5,36.1,30.53,ENE,76,2.0,11.0,60,0.00,,,0.00,meteohub,2013-01-10 12:42:00,
2013-01-10 07:47:00,49.5,36.1,30.53,East,98,3.0,11.0,60,0.00,,,0.00,meteohub,2013-01-10 12:47:00,
2013-01-10 07:52:00,49.3,36.0,30.53,NNE,29,6.0,11.0,60,0.00,,,0.00,meteohub,2013-01-10 12:52:00,
2013-01-10 07:57:00,49.3,36.0,30.54,NE,50,3.0,10.0,60,0.00,,,0.00,meteohub,2013-01-10 12:57:00,
2013-01-10 08:02:00,49.3,36.0,30.54,NE,35,4.0,10.0,60,0.00,,,0.00,meteohub,2013-01-10 13:02:00,
2013-01-10 08:07:00,49.3,36.0,30.55,NNE,24,8.0,9.0,60,0.00,,,0.00,meteohub,2013-01-10 13:07:00,
2013-01-10 08:12:00,49.3,36.0,30.55,ESE,121,4.0,10.0,60,0.00,,,0.00,meteohub,2013-01-10 13:12:00,
2013-01-10 08:17:00,49.5,35.2,30.55,NNE,20,6.0,10.0,58,0.00,,,0.00,meteohub,2013-01-10 13:17:00,
2013-01-10 08:22:00,49.6,35.4,30.55,NNE,23,5.0,12.0,58,0.00,,,0.00,meteohub,2013-01-10 13:22:00,
2013-01-10 08:27:00,49.6,35.4,30.56,NNE,23,3.0,12.0,58,0.00,,,0.00,meteohub,2013-01-10 13:27:00,
2013-01-10 08:32:00,50.0,35.8,30.56,NNE,26,6.0,12.0,58,0.00,,,0.00,meteohub,2013-01-10 13:32:00,
2013-01-10 08:37:00,50.2,36.0,30.56,NNE,12,6.0,12.0,58,0.00,,,0.00,meteohub,2013-01-10 13:37:00,
2013-01-10 08:42:00,50.4,35.8,30.57,NNE,19,3.0,10.0,57,0.00,,,0.00,meteohub,2013-01-10 13:42:00,
2013-01-10 08:47:00,50.5,36.0,30.56,NNE,23,8.0,12.0,57,0.00,,,0.00,meteohub,2013-01-10 13:47:00,
2013-01-10 08:52:00,50.5,35.4,30.56,North,358,8.0,12.0,56,0.00,,,0.00,meteohub,2013-01-10 13:52:00,
2013-01-10 08:57:00,50.7,35.6,30.57,NE,44,10.0,12.0,56,0.00,,,0.00,meteohub,2013-01-10 13:57:00,
2013-01-10 09:02:00,51.1,35.4,30.57,NE,37,9.0,13.0,55,0.00,,,0.00,meteohub,2013-01-10 14:02:00,
2013-01-10 09:07:00,51.4,35.8,30.57,NNE,19,5.0,13.0,55,0.00,,,0.00,meteohub,2013-01-10 14:07:00,
2013-01-10 09:12:00,51.6,35.6,30.58,NNW,346,4.0,13.0,54,0.00,,,0.00,meteohub,2013-01-10 14:12:00,
2013-01-10 09:17:00,51.8,35.2,30.58,North,8,11.0,13.0,53,0.00,,,0.00,meteohub,2013-01-10 14:17:00,
2013-01-10 09:22:00,51.8,35.2,30.57,NNE,28,10.0,13.0,53,0.00,,,0.00,meteohub,2013-01-10 14:22:00,
2013-01-10 09:27:00,52.0,34.9,30.58,North,8,3.0,13.0,52,0.00,,,0.00,meteohub,2013-01-10 14:27:00,
2013-01-10 09:32:00,52.2,35.1,30.58,NNE,29,9.0,13.0,52,0.00,,,0.00,meteohub,2013-01-10 14:32:00,
2013-01-10 09:37:00,52.3,34.7,30.58,NNE,27,12.0,15.0,51,0.00,,,0.00,meteohub,2013-01-10 14:37:00,
2013-01-10 09:42:00,52.5,33.4,30.58,NNE,30,9.0,15.0,48,0.00,,,0.00,meteohub,2013-01-10 14:42:00,
2013-01-10 09:47:00,52.9,33.8,30.58,NE,53,15.0,18.0,48,0.00,,,0.00,meteohub,2013-01-10 14:47:00,
2013-01-10 09:52:00,52.9,32.7,30.58,NNE,29,13.0,18.0,46,0.00,,,0.00,meteohub,2013-01-10 14:52:00,
2013-01-10 09:57:00,52.9,33.3,30.58,SE,124,11.0,21.0,47,0.00,,,0.00,meteohub,2013-01-10 14:57:00,
2013-01-10 10:02:00,52.9,32.7,30.58,NNE,24,11.0,21.0,46,0.00,,,0.00,meteohub,2013-01-10 15:02:00,
2013-01-10 10:07:00,52.9,32.7,30.58,NE,49,6.0,21.0,46,0.00,,,0.00,meteohub,2013-01-10 15:07:00,
2013-01-10 10:12:00,52.9,32.7,30.58,East,89,4.0,20.0,46,0.00,,,0.00,meteohub,2013-01-10 15:12:00,
2013-01-10 10:17:00,52.9,32.7,30.57,NNE,23,11.0,20.0,46,0.00,,,0.00,meteohub,2013-01-10 15:17:00,
2013-01-10 10:22:00,53.1,32.9,30.58,NW,309,3.0,20.0,46,0.00,,,0.00,meteohub,2013-01-10 15:22:00,
2013-01-10 10:27:00,53.2,33.1,30.57,ENE,61,13.0,20.0,46,0.00,,,0.00,meteohub,2013-01-10 15:27:00,
2013-01-10 10:32:00,53.1,32.9,30.57,NNE,18,9.0,18.0,46,0.00,,,0.00,meteohub,2013-01-10 15:32:00,
2013-01-10 10:37:00,53.2,33.1,30.57,ESE,113,9.0,18.0,46,0.00,,,0.00,meteohub,2013-01-10 15:37:00,
2013-01-10 10:42:00,53.4,32.5,30.56,ESE,105,9.0,19.0,45,0.00,,,0.00,meteohub,2013-01-10 15:42:00,
2013-01-10 10:47:00,53.2,33.4,30.56,East,92,15.0,20.0,47,0.00,,,0.00,meteohub,2013-01-10 15:47:00,
2013-01-10 10:52:00,53.2,33.1,30.56,NNE,25,16.0,20.0,46,0.00,,,0.00,meteohub,2013-01-10 15:52:00,
2013-01-10 10:57:00,53.2,32.4,30.56,East,87,14.0,20.0,45,0.00,,,0.00,meteohub,2013-01-10 15:57:00,
2013-01-10 11:02:00,53.2,33.4,30.56,NNE,26,6.0,18.0,47,0.00,,,0.00,meteohub,2013-01-10 16:02:00,
2013-01-10 11:07:00,53.6,33.8,30.56,NNE,31,10.0,18.0,47,0.00,,,0.00,meteohub,2013-01-10 16:07:00,
2013-01-10 11:12:00,53.2,35.1,30.56,NNE,26,10.0,18.0,50,0.00,,,0.00,meteohub,2013-01-10 16:12:00,
2013-01-10 11:17:00,53.8,36.1,30.56,NNE,12,9.0,16.0,51,0.00,,,0.00,meteohub,2013-01-10 16:17:00,
2013-01-10 11:22:00,53.8,35.1,30.56,NNE,15,12.0,16.0,49,0.00,,,0.00,meteohub,2013-01-10 16:22:00,
2013-01-10 11:27:00,54.0,33.6,30.56,NE,40,8.0,16.0,46,0.00,,,0.00,meteohub,2013-01-10 16:27:00,
2013-01-10 11:32:00,53.8,33.4,30.55,East,101,14.0,16.0,46,0.00,,,0.00,meteohub,2013-01-10 16:32:00,
2013-01-10 11:37:00,54.1,33.8,30.55,ESE,122,6.0,16.0,46,0.00,,,0.00,meteohub,2013-01-10 16:37:00,
2013-01-10 11:42:00,54.0,33.6,30.54,ESE,108,7.0,16.0,46,0.00,,,0.00,meteohub,2013-01-10 16:42:00,
2013-01-10 11:47:00,53.8,33.4,30.54,East,91,13.0,16.0,46,0.00,,,0.00,meteohub,2013-01-10 16:47:00,
2013-01-10 11:52:00,54.0,33.6,30.53,ENE,57,10.0,14.0,46,0.00,,,0.00,meteohub,2013-01-10 16:52:00,
2013-01-10 11:57:00,54.0,33.1,30.53,NNE,29,11.0,15.0,45,0.00,,,0.00,meteohub,2013-01-10 16:57:00,
2013-01-10 12:02:00,53.8,33.4,30.53,NNE,22,12.0,17.0,46,0.00,,,0.00,meteohub,2013-01-10 17:02:00,
2013-01-10 12:07:00,53.8,33.4,30.53,NNE,32,7.0,17.0,46,0.00,,,0.00,meteohub,2013-01-10 17:07:00,
2013-01-10 12:12:00,53.8,34.0,30.53,ESE,114,6.0,17.0,47,0.00,,,0.00,meteohub,2013-01-10 17:12:00,
2013-01-10 12:17:00,53.8,33.4,30.52,NNW,328,8.0,17.0,46,0.00,,,0.00,meteohub,2013-01-10 17:17:00,
2013-01-10 12:22:00,53.8,34.0,30.52,NNE,25,15.0,17.0,47,0.00,,,0.00,meteohub,2013-01-10 17:22:00,
2013-01-10 12:27:00,53.4,33.6,30.52,NE,34,5.0,18.0,47,0.00,,,0.00,meteohub,2013-01-10 17:27:00,
2013-01-10 12:32:00,53.4,34.2,30.52,NE,41,16.0,18.0,48,0.00,,,0.00,meteohub,2013-01-10 17:32:00,
2013-01-10 12:37:00,53.2,34.5,30.51,NE,43,9.0,18.0,49,0.00,,,0.00,meteohub,2013-01-10 17:37:00,
2013-01-10 12:42:00,53.2,34.5,30.51,ESE,117,1.0,17.0,49,0.00,,,0.00,meteohub,2013-01-10 17:42:00,
2013-01-10 12:47:00,53.2,34.5,30.51,NE,37,11.0,17.0,49,0.00,,,0.00,meteohub,2013-01-10 17:47:00,
2013-01-10 12:52:00,53.6,34.3,30.51,NNE,22,11.0,17.0,48,0.00,,,0.00,meteohub,2013-01-10 17:52:00,
2013-01-10 12:57:00,53.8,34.5,30.51,NNE,20,11.0,17.0,48,0.00,,,0.00,meteohub,2013-01-10 17:57:00,
2013-01-10 13:02:00,53.4,33.6,30.51,NNE,23,9.0,17.0,47,0.00,,,0.00,meteohub,2013-01-10 18:02:00,
2013-01-10 13:07:00,53.4,34.7,30.51,NE,54,3.0,18.0,49,0.00,,,0.00,meteohub,2013-01-10 18:07:00,
2013-01-10 13:12:00,53.6,34.3,30.51,North,8,11.0,18.0,48,0.00,,,0.00,meteohub,2013-01-10 18:12:00,
2013-01-10 13:17:00,53.4,33.6,30.51,ESE,113,11.0,18.0,47,0.00,,,0.00,meteohub,2013-01-10 18:17:00,
2013-01-10 13:22:00,53.2,33.4,30.51,ESE,104,5.0,17.0,47,0.00,,,0.00,meteohub,2013-01-10 18:22:00,
2013-01-10 13:27:00,53.4,33.6,30.51,ENE,75,6.0,16.0,47,0.00,,,0.00,meteohub,2013-01-10 18:27:00,
2013-01-10 13:32:00,53.4,33.6,30.51,North,355,4.0,16.0,47,0.00,,,0.00,meteohub,2013-01-10 18:32:00,
2013-01-10 13:37:00,53.4,34.2,30.51,NE,34,11.0,14.0,48,0.00,,,0.00,meteohub,2013-01-10 18:37:00,
2013-01-10 13:42:00,53.8,35.1,30.51,East,101,13.0,17.0,49,0.00,,,0.00,meteohub,2013-01-10 18:42:00,
2013-01-10 13:47:00,53.8,35.1,30.51,ESE,106,10.0,17.0,49,0.00,,,0.00,meteohub,2013-01-10 18:47:00,
2013-01-10 13:52:00,53.8,35.1,30.51,NNE,27,8.0,16.0,49,0.00,,,0.00,meteohub,2013-01-10 18:52:00,
2013-01-10 13:57:00,54.1,34.3,30.51,East,94,10.0,13.0,47,0.00,,,0.00,meteohub,2013-01-10 18:57:00,
2013-01-10 14:02:00,54.0,33.6,30.50,East,100,9.0,14.0,46,0.00,,,0.00,meteohub,2013-01-10 19:02:00,
2013-01-10 14:07:00,53.8,33.4,30.50,NE,40,13.0,17.0,46,0.00,,,0.00,meteohub,2013-01-10 19:07:00,
2013-01-10 14:12:00,53.4,33.1,30.51,ESE,105,8.0,17.0,46,0.00,,,0.00,meteohub,2013-01-10 19:12:00,
2013-01-10 14:17:00,53.4,33.6,30.51,NNW,328,2.0,17.0,47,0.00,,,0.00,meteohub,2013-01-10 19:17:00,
2013-01-10 14:22:00,53.8,33.4,30.51,NNE,22,13.0,16.0,46,0.00,,,0.00,meteohub,2013-01-10 19:22:00,
2013-01-10 14:27:00,53.8,33.4,30.50,NNE,18,8.0,16.0,46,0.00,,,0.00,meteohub,2013-01-10 19:27:00,
2013-01-10 14:32:00,53.4,34.2,30.51,East,79,5.0,15.0,48,0.00,,,0.00,meteohub,2013-01-10 19:32:00,
2013-01-10 14:37:00,53.4,34.7,30.51,WNW,285,1.0,14.0,49,0.00,,,0.00,meteohub,2013-01-10 19:37:00,
2013-01-10 14:42:00,53.8,34.5,30.51,SSE,158,8.0,14.0,48,0.00,,,0.00,meteohub,2013-01-10 19:42:00,
2013-01-10 14:47:00,53.4,33.6,30.51,NE,34,7.0,13.0,47,0.00,,,0.00,meteohub,2013-01-10 19:47:00,
2013-01-10 14:52:00,53.2,34.5,30.51,NNE,20,10.0,13.0,49,0.00,,,0.00,meteohub,2013-01-10 19:52:00,
2013-01-10 14:57:00,53.1,34.3,30.51,NNE,22,6.0,14.0,49,0.00,,,0.00,meteohub,2013-01-10 19:57:00,
2013-01-10 15:02:00,52.7,34.2,30.51,NNE,27,7.0,14.0,49,0.00,,,0.00,meteohub,2013-01-10 20:02:00,
2013-01-10 15:07:00,52.2,34.2,30.52,ESE,115,5.0,14.0,50,0.00,,,0.00,meteohub,2013-01-10 20:07:00,
2013-01-10 15:12:00,52.0,34.0,30.52,ENE,67,6.0,16.0,50,0.00,,,0.00,meteohub,2013-01-10 20:12:00,
2013-01-10 15:17:00,52.2,34.2,30.52,ENE,70,9.0,16.0,50,0.00,,,0.00,meteohub,2013-01-10 20:17:00,
2013-01-10 15:22:00,52.3,34.2,30.52,NNE,23,9.0,16.0,50,0.00,,,0.00,meteohub,2013-01-10 20:22:00,
2013-01-10 15:27:00,52.2,34.2,30.53,NNE,16,8.0,13.0,50,0.00,,,0.00,meteohub,2013-01-10 20:27:00,
2013-01-10 15:32:00,52.0,34.0,30.52,NE,46,6.0,13.0,50,0.00,,,0.00,meteohub,2013-01-10 20:32:00,
2013-01-10 15:37:00,52.0,34.3,30.52,NNE,33,7.0,13.0,51,0.00,,,0.00,meteohub,2013-01-10 20:37:00,
2013-01-10 15:42:00,52.2,35.1,30.52,ESE,103,9.0,12.0,52,0.00,,,0.00,meteohub,2013-01-10 20:42:00,
2013-01-10 15:47:00,52.2,35.1,30.51,ESE,106,4.0,12.0,52,0.00,,,0.00,meteohub,2013-01-10 20:47:00,
2013-01-10 15:52:00,52.2,34.5,30.52,ESE,102,3.0,11.0,51,0.00,,,0.00,meteohub,2013-01-10 20:52:00,
2013-01-10 15:57:00,52.0,34.3,30.52,East,95,5.0,11.0,51,0.00,,,0.00,meteohub,2013-01-10 20:57:00,
2013-01-10 16:02:00,51.6,34.2,30.52,NNW,342,7.0,11.0,51,0.00,,,0.00,meteohub,2013-01-10 21:02:00,
2013-01-10 16:07:00,51.4,34.9,30.52,East,99,3.0,11.0,53,0.00,,,0.00,meteohub,2013-01-10 21:07:00,
2013-01-10 16:12:00,51.1,35.1,30.53,ESE,105,2.0,9.0,54,0.00,,,0.00,meteohub,2013-01-10 21:12:00,
2013-01-10 16:17:00,51.3,35.2,30.52,NNE,20,4.0,9.0,54,0.00,,,0.00,meteohub,2013-01-10 21:17:00,
2013-01-10 16:23:00,51.4,35.4,30.52,SSE,148,1.0,8.0,54,0.00,,,0.00,meteohub,2013-01-10 21:23:00,
2013-01-10 16:28:00,51.4,35.4,30.52,East,94,3.0,7.0,54,0.00,,,0.00,meteohub,2013-01-10 21:28:00,
2013-01-10 16:33:00,51.1,35.4,30.51,East,98,2.0,6.0,55,0.00,,,0.00,meteohub,2013-01-10 21:33:00,
2013-01-10 16:38:00,50.9,35.2,30.52,East,101,3.0,6.0,55,0.00,,,0.00,meteohub,2013-01-10 21:38:00,
2013-01-10 16:43:00,50.7,35.6,30.52,NNE,32,3.0,5.0,56,0.00,,,0.00,meteohub,2013-01-10 21:43:00,
2013-01-10 16:48:00,50.9,35.8,30.51,East,82,2.0,5.0,56,0.00,,,0.00,meteohub,2013-01-10 21:48:00,
2013-01-10 16:53:00,50.7,35.6,30.51,East,91,2.0,5.0,56,0.00,,,0.00,meteohub,2013-01-10 21:53:00,
2013-01-10 16:58:00,50.5,36.0,30.51,ESE,117,1.0,5.0,57,0.00,,,0.00,meteohub,2013-01-10 21:58:00,
2013-01-10 17:03:00,50.2,35.6,30.50,WNW,297,0.0,4.0,57,0.00,,,0.00,meteohub,2013-01-10 22:03:00,
2013-01-10 17:08:00,49.8,35.6,30.50,East,93,4.0,5.0,58,0.00,,,0.00,meteohub,2013-01-10 22:08:00,
2013-01-10 17:13:00,49.3,35.6,30.50,ENE,65,2.0,8.0,59,0.00,,,0.00,meteohub,2013-01-10 22:13:00,
2013-01-10 17:18:00,48.7,35.4,30.51,East,91,5.0,8.0,60,0.00,,,0.00,meteohub,2013-01-10 22:18:00,
2013-01-10 17:23:00,48.6,35.8,30.51,NNW,342,2.0,8.0,61,0.00,,,0.00,meteohub,2013-01-10 22:23:00,
2013-01-10 17:28:00,48.4,35.6,30.50,NE,35,3.0,8.0,61,0.00,,,0.00,meteohub,2013-01-10 22:28:00,
2013-01-10 17:34:00,48.0,35.6,30.51,East,93,3.0,6.0,62,0.00,,,0.00,meteohub,2013-01-10 22:34:00,
2013-01-10 17:39:00,48.0,36.0,30.51,NE,39,2.0,4.0,63,0.00,,,0.00,meteohub,2013-01-10 22:39:00,
2013-01-10 17:44:00,47.8,36.3,30.50,East,92,0.0,4.0,64,0.00,,,0.00,meteohub,2013-01-10 22:44:00,
2013-01-10 17:49:00,47.8,36.3,30.51,NE,46,0.0,3.0,64,0.00,,,0.00,meteohub,2013-01-10 22:49:00,
2013-01-10 17:54:00,47.7,36.5,30.51,NNE,28,0.0,3.0,65,0.00,,,0.00,meteohub,2013-01-10 22:54:00,
2013-01-10 17:59:00,47.7,36.5,30.51,NNE,26,1.0,2.0,65,0.00,,,0.00,meteohub,2013-01-10 22:59:00,
2013-01-10 18:04:00,47.7,36.9,30.51,ESE,110,0.0,2.0,66,0.00,,,0.00,meteohub,2013-01-10 23:04:00,
2013-01-10 18:09:00,47.5,36.7,30.51,NE,53,1.0,2.0,66,0.00,,,0.00,meteohub,2013-01-10 23:09:00,
2013-01-10 18:14:00,47.5,37.0,30.51,NNE,30,0.0,2.0,67,0.00,,,0.00,meteohub,2013-01-10 23:14:00,
2013-01-10 18:19:00,47.5,37.0,30.51,NNE,25,0.0,1.0,67,0.00,,,0.00,meteohub,2013-01-10 23:19:00,
2013-01-10 18:24:00,47.5,37.0,30.51,NNE,23,0.0,2.0,67,0.00,,,0.00,meteohub,2013-01-10 23:24:00,
2013-01-10 18:29:00,47.3,36.9,30.51,North,11,0.0,2.0,67,0.00,,,0.00,meteohub,2013-01-10 23:29:00,
2013-01-10 18:34:00,47.3,36.9,30.51,North,6,0.0,2.0,67,0.00,,,0.00,meteohub,2013-01-10 23:34:00,
2013-01-10 18:39:00,47.1,37.0,30.51,North,8,0.0,0.0,68,0.00,,,0.00,meteohub,2013-01-10 23:39:00,
2013-01-10 18:44:00,47.1,37.0,30.51,North,0,0.0,0.0,68,0.00,,,0.00,meteohub,2013-01-10 23:44:00,
2013-01-10 18:49:00,47.1,37.0,30.52,North,0,0.0,0.0,68,0.00,,,0.00,meteohub,2013-01-10 23:49:00,
2013-01-10 18:54:00,46.9,37.2,30.51,WSW,249,0.0,0.0,69,0.00,,,0.00,meteohub,2013-01-10 23:54:00,
2013-01-10 19:00:00,46.9,37.2,30.52,SE,127,0.0,0.0,69,0.00,,,0.00,meteohub,2013-01-11 00:00:00,
2013-01-10 19:05:00,46.8,37.6,30.52,East,98,1.0,1.0,70,0.00,,,0.00,meteohub,2013-01-11 00:05:00,
2013-01-10 19:10:00,46.6,37.4,30.52,East,98,1.0,1.0,70,0.00,,,0.00,meteohub,2013-01-11 00:10:00,
2013-01-10 19:15:00,46.6,37.4,30.52,ESE,117,0.0,2.0,70,0.00,,,0.00,meteohub,2013-01-11 00:15:00,
2013-01-10 19:20:00,46.6,37.4,30.52,ESE,107,0.0,2.0,70,0.00,,,0.00,meteohub,2013-01-11 00:20:00,
2013-01-10 19:25:00,46.4,37.6,30.52,ESE,109,0.0,2.0,71,0.00,,,0.00,meteohub,2013-01-11 00:25:00,
2013-01-10 19:30:00,46.2,37.4,30.52,East,93,2.0,2.0,71,0.00,,,0.00,meteohub,2013-01-11 00:30:00,
2013-01-10 19:35:00,46.0,37.6,30.52,East,90,0.0,2.0,72,0.00,,,0.00,meteohub,2013-01-11 00:35:00,
2013-01-10 19:40:00,45.9,37.4,30.52,NNE,29,1.0,2.0,72,0.00,,,0.00,meteohub,2013-01-11 00:40:00,
2013-01-10 19:45:00,45.7,37.6,30.52,East,84,0.0,2.0,73,0.00,,,0.00,meteohub,2013-01-11 00:45:00,
2013-01-10 19:50:00,45.5,37.4,30.52,East,84,0.0,1.0,73,0.00,,,0.00,meteohub,2013-01-11 00:50:00,
2013-01-10 19:55:00,45.3,37.6,30.52,SE,124,1.0,2.0,74,0.00,,,0.00,meteohub,2013-01-11 00:55:00,
2013-01-10 20:00:00,45.3,37.6,30.52,ESE,105,0.0,2.0,74,0.00,,,0.00,meteohub,2013-01-11 01:00:00,
2013-01-10 20:05:00,45.3,37.9,30.53,ESE,108,0.0,2.0,75,0.00,,,0.00,meteohub,2013-01-11 01:05:00,
2013-01-10 20:10:00,45.3,37.9,30.52,ESE,107,0.0,1.0,75,0.00,,,0.00,meteohub,2013-01-11 01:10:00,
2013-01-10 20:16:00,45.0,37.6,30.52,ESE,107,0.0,1.0,75,0.00,,,0.00,meteohub,2013-01-11 01:16:00,
2013-01-10 20:21:00,45.0,37.9,30.52,ESE,110,0.0,1.0,76,0.00,,,0.00,meteohub,2013-01-11 01:21:00,
2013-01-10 20:26:00,45.0,37.9,30.53,ESE,112,0.0,1.0,76,0.00,,,0.00,meteohub,2013-01-11 01:26:00,
2013-01-10 20:31:00,45.0,37.9,30.53,ESE,113,0.0,1.0,76,0.00,,,0.00,meteohub,2013-01-11 01:31:00,
2013-01-10 20:36:00,44.8,37.9,30.53,ESE,113,0.0,1.0,77,0.00,,,0.00,meteohub,2013-01-11 01:36:00,
2013-01-10 20:41:00,44.6,38.1,30.53,WSW,250,0.0,1.0,78,0.00,,,0.00,meteohub,2013-01-11 01:41:00,
2013-01-10 20:46:00,44.4,37.6,30.53,WSW,250,0.0,1.0,77,0.00,,,0.00,meteohub,2013-01-11 01:46:00,
2013-01-10 20:51:00,44.2,37.8,30.53,WSW,245,0.0,1.0,78,0.00,,,0.00,meteohub,2013-01-11 01:51:00,
2013-01-10 20:56:00,44.1,37.6,30.53,SW,224,0.0,1.0,78,0.00,,,0.00,meteohub,2013-01-11 01:56:00,
2013-01-10 21:01:00,43.9,37.8,30.53,WSW,252,0.0,1.0,79,0.00,,,0.00,meteohub,2013-01-11 02:01:00,
2013-01-10 21:06:00,43.9,38.1,30.53,West,275,0.0,1.0,80,0.00,,,0.00,meteohub,2013-01-11 02:06:00,
2013-01-10 21:11:00,43.7,37.6,30.53,West,270,0.0,0.0,79,0.00,,,0.00,meteohub,2013-01-11 02:11:00,
2013-01-10 21:17:00,42.8,36.7,30.53,West,271,0.0,0.0,79,0.00,,,0.00,meteohub,2013-01-11 02:17:00,
2013-01-10 21:22:00,42.3,36.9,30.52,West,272,0.0,0.0,81,0.00,,,0.00,meteohub,2013-01-11 02:22:00,
2013-01-10 21:27:00,41.7,36.7,30.52,West,273,0.0,0.0,82,0.00,,,0.00,meteohub,2013-01-11 02:27:00,
2013-01-10 21:32:00,41.5,36.7,30.52,West,276,0.0,0.0,83,0.00,,,0.00,meteohub,2013-01-11 02:32:00,
2013-01-10 21:37:00,41.4,36.5,30.53,West,276,0.0,0.0,83,0.00,,,0.00,meteohub,2013-01-11 02:37:00,
2013-01-10 21:42:00,41.4,37.2,30.53,West,277,0.0,0.0,85,0.00,,,0.00,meteohub,2013-01-11 02:42:00,
2013-01-10 21:47:00,41.2,36.7,30.53,West,279,0.0,0.0,84,0.00,,,0.00,meteohub,2013-01-11 02:47:00,
2013-01-10 21:52:00,41.2,37.0,30.53,West,281,0.0,0.0,85,0.00,,,0.00,meteohub,2013-01-11 02:52:00,
2013-01-10 21:57:00,40.8,36.7,30.53,West,281,0.0,0.0,85,0.00,,,0.00,meteohub,2013-01-11 02:57:00,
2013-01-10 22:02:00,40.6,36.9,30.53,NNE,18,0.0,0.0,86,0.00,,,0.00,meteohub,2013-01-11 03:02:00,
2013-01-10 22:07:00,40.8,37.2,30.53,ENE,64,0.0,0.0,87,0.00,,,0.00,meteohub,2013-01-11 03:07:00,
2013-01-10 22:12:00,41.2,37.9,30.52,East,94,0.0,0.0,88,0.00,,,0.00,meteohub,2013-01-11 03:12:00,
2013-01-10 22:17:00,41.7,38.5,30.52,East,96,0.0,0.0,88,0.00,,,0.00,meteohub,2013-01-11 03:17:00,
2013-01-10 22:23:00,41.7,38.1,30.52,East,98,0.0,0.0,87,0.00,,,0.00,meteohub,2013-01-11 03:23:00,
2013-01-10 22:28:00,41.4,37.6,30.52,East,99,0.0,0.0,86,0.00,,,0.00,meteohub,2013-01-11 03:28:00,
2013-01-10 22:33:00,41.2,37.6,30.52,East,98,0.0,0.0,87,0.00,,,0.00,meteohub,2013-01-11 03:33:00,
2013-01-10 22:38:00,40.8,37.2,30.52,East,99,0.0,0.0,87,0.00,,,0.00,meteohub,2013-01-11 03:38:00,
2013-01-10 22:43:00,40.3,36.5,30.52,East,96,0.0,0.0,86,0.00,,,0.00,meteohub,2013-01-11 03:43:00,
2013-01-10 22:48:00,39.9,36.7,30.52,East,96,0.0,0.0,88,0.00,,,0.00,meteohub,2013-01-11 03:48:00,
2013-01-10 22:53:00,40.3,37.2,30.52,East,96,0.0,0.0,89,0.00,,,0.00,meteohub,2013-01-11 03:53:00,
2013-01-10 22:58:00,39.9,36.7,30.52,East,95,0.0,0.0,88,0.00,,,0.00,meteohub,2013-01-11 03:58:00,
2013-01-10 23:03:00,39.7,36.7,30.52,East,94,0.0,0.0,89,0.00,,,0.00,meteohub,2013-01-11 04:03:00,
2013-01-10 23:08:00,39.6,36.3,30.53,East,95,0.0,0.0,88,0.00,,,0.00,meteohub,2013-01-11 04:08:00,
2013-01-10 23:13:00,39.2,36.3,30.53,East,94,0.0,0.0,89,0.00,,,0.00,meteohub,2013-01-11 04:13:00,
2013-01-10 23:18:00,39.4,37.0,30.53,East,86,0.0,0.0,91,0.00,,,0.00,meteohub,2013-01-11 04:18:00,
2013-01-10 23:23:00,39.9,37.6,30.52,East,85,0.0,0.0,91,0.00,,,0.00,meteohub,2013-01-11 04:23:00,
2013-01-10 23:28:00,40.1,37.8,30.53,East,85,0.0,0.0,91,0.00,,,0.00,meteohub,2013-01-11 04:28:00,
2013-01-10 23:33:00,39.9,37.6,30.52,East,84,0.0,0.0,91,0.00,,,0.00,meteohub,2013-01-11 04:33:00,
2013-01-10 23:39:00,39.6,37.2,30.52,East,82,0.0,0.0,91,0.00,,,0.00,meteohub,2013-01-11 04:39:00,
2013-01-10 23:44:00,39.9,37.8,30.52,East,82,0.0,0.0,92,0.00,,,0.00,meteohub,2013-01-11 04:44:00,
2013-01-10 23:49:00,39.7,37.4,30.52,East,82,0.0,0.0,91,0.00,,,0.00,meteohub,2013-01-11 04:49:00,
2013-01-10 23:54:00,39.4,37.0,30.52,East,82,0.0,0.0,91,0.00,,,0.00,meteohub,2013-01-11 04:54:00,
2013-01-10 23:59:00,39.6,37.8,30.52,East,82,0.0,0.0,93,0.00,,,0.00,meteohub,2013-01-11 04:59:00,